Weather History for GMMX - February, 2014

Change the Weather History Date:

Wednesday, February 12, 2014

  Actual Average Record
Temperature  
Mean Temperature 54 °F -  
Max Temperature 68 °F 69 °F 82 °F (2007)
Min Temperature 40 °F 47 °F 33 °F (2006)
Degree Days  
Heating Degree Days 11    
Growing Degree Days 4 (Base 50)    
Moisture  
Dew Point 43 °F    
Average Humidity 66    
Maximum Humidity 93    
Minimum Humidity 32    
Precipitation  
Precipitation 0.00 in 0.05 in - ()
Sea Level Pressure  
Sea Level Pressure 30.28 in    
Wind  
Wind Speed 3 mph ()    
Max Wind Speed 8 mph    
Max Gust Speed -    
Visibility 5.9 miles    
Events      
Averages and records for this station are not official NWS values.
T = Trace of Precipitation, MM = Missing Value Source: Averaged Metar Reports

Daily Weather History Graph

Daily Weather History Graph

Search for Another Location

Airport or City:

Trip Planner

Search our weather history database for the weather conditions in past years. The results will help you decide how hot, cold, wet, or windy it might be!

Date:

Astronomy

Feb. 12, 2014 Rise Set
Actual Time 7:16 AM WET 6:16 PM WET
Civil Twilight 6:51 AM WET 6:41 PM WET
Nautical Twilight 6:23 AM WET 7:10 PM WET
Astronomical Twilight 5:54 AM WET 7:38 PM WET
Moon 4:20 PM WET (2/12) 5:21 AM WET (2/12)
Length of Visible Light 11h 49m
Length of Day
10h 59m
Waxing Gibbous, 94% of the Moon is Illuminated
Feb 12
Waxing Gibbous
Feb 14
Full
Feb 22
Last Quarter
Mar 1
New
Mar 8
First Quarter

Hourly Weather History & Observations

Time (WET) Temp. Windchill Dew Point Humidity Pressure Visibility Wind Dir Wind Speed Gust Speed Precip Events Conditions
12:00 AM 48 °F - 42 °F 74% 30.33 in 6 mi Calm Calm - -  
12:00 AM 48.2 °F - 42.8 °F 82% 30.30 in - Calm Calm - N/A   Clear
12:30 AM 48.2 °F - 42.8 °F 82% 30.30 in - Calm Calm - N/A   Clear
1:00 AM 48.2 °F - 42.8 °F 82% 30.30 in - Calm Calm - N/A   Clear
1:30 AM 48.2 °F - 42.8 °F 82% 30.27 in 6.2 mi South 1.2 mph - N/A   Unknown
2:00 AM 48.2 °F - 42.8 °F 82% 30.27 in - NNE 1.2 mph - N/A   Clear
2:30 AM 46.4 °F - 42.8 °F 87% 30.27 in - Variable 2.3 mph - N/A   Clear
3:00 AM 48 °F - 43 °F 77% 30.30 in 6 mi SE 3.5 mph - -  
3:00 AM 48.2 °F - 42.8 °F 82% 30.27 in 6.2 mi ESE 3.5 mph - N/A   Unknown
3:30 AM 46.4 °F - 42.8 °F 87% 30.27 in 6.2 mi SSE 2.3 mph - N/A   Unknown
4:00 AM 46.4 °F 45.2 °F 42.8 °F 87% 30.27 in 6.2 mi East 3.5 mph - N/A   Unknown
4:30 AM 46.4 °F - 42.8 °F 87% 30.27 in 6.2 mi ENE 2.3 mph - N/A   Unknown
5:00 AM 44.6 °F 43.1 °F 42.8 °F 93% 30.27 in - NE 3.5 mph - N/A   Clear
5:30 AM 44.6 °F - 41.0 °F 87% 30.27 in - East 2.3 mph - N/A   Clear
6:00 AM 43 °F - 40 °F 87% 30.32 in 6 mi SSE 3.5 mph - -  
6:00 AM 42.8 °F 41.1 °F 41.0 °F 93% 30.27 in - SSE 3.5 mph - N/A   Clear
6:30 AM 42.8 °F - 41.0 °F 93% 30.27 in - East 2.3 mph - N/A   Clear
7:00 AM 42.8 °F 41.1 °F 41.0 °F 93% 30.27 in - ENE 3.5 mph - N/A   Clear
7:30 AM 41.0 °F 39.0 °F 39.2 °F 93% 30.30 in - East 3.5 mph - N/A   Clear
8:00 AM 44.6 °F 42.2 °F 42.8 °F 93% 30.30 in - East 4.6 mph - N/A   Clear
8:30 AM 46.4 °F 44.3 °F 42.8 °F 87% 30.30 in 5.0 mi East 4.6 mph - N/A   Unknown
9:00 AM 50 °F - 44 °F 72% 30.34 in 6 mi East 5.8 mph - -  
9:00 AM 50.0 °F - 42.8 °F 76% 30.30 in - ESE 5.8 mph - N/A   Clear
9:30 AM 46.4 °F 44.3 °F 42.8 °F 87% 30.30 in 5.0 mi East 4.6 mph - N/A   Unknown
10:00 AM 55.4 °F - 44.6 °F 67% 30.30 in - East 3.5 mph - N/A   Clear
10:30 AM 57.2 °F - 44.6 °F 63% 30.30 in - Variable 1.2 mph - N/A   Clear
11:00 AM 59.0 °F - 42.8 °F 55% 30.30 in - NE 4.6 mph - N/A   Clear
11:30 AM 60.8 °F - 41.0 °F 48% 30.30 in - NNE 4.6 mph - N/A   Clear
11:47 AM 62 °F - 42 °F 36% 30.28 in 6 mi NNE 4.6 mph - -  
12:00 PM 62.6 °F - 41.0 °F 45% 30.30 in - NNE 4.6 mph - N/A   Clear
12:30 PM 62.6 °F - 41.0 °F 45% 30.27 in - NNE 4.6 mph - N/A   Clear
1:00 PM 64.4 °F - 39.2 °F 40% 30.27 in - NE 6.9 mph - N/A   Clear
1:30 PM 64.4 °F - 42.8 °F 45% 30.27 in - North 6.9 mph - N/A   Clear
2:00 PM 66.2 °F - 42.8 °F 43% 30.27 in - Variable 5.8 mph - N/A   Clear
2:30 PM 68.0 °F - 44.6 °F 43% 30.24 in - Variable 4.6 mph - N/A   Clear
3:00 PM 68 °F - 45 °F 32% 30.21 in 6 mi North 4.6 mph - -  
3:00 PM 68.0 °F - 44.6 °F 43% 30.24 in - Variable 4.6 mph - N/A   Clear
3:30 PM 68.0 °F - 44.6 °F 43% 30.24 in - NNE 8.1 mph - N/A   Clear
4:00 PM 68.0 °F - 42.8 °F 40% 30.24 in - North 6.9 mph - N/A   Clear
4:30 PM 68.0 °F - 44.6 °F 43% 30.24 in - ENE 8.1 mph - N/A   Clear
5:00 PM 68.0 °F - 44.6 °F 43% 30.24 in - NE 6.9 mph - N/A   Clear
5:30 PM 66.2 °F - 44.6 °F 46% 30.24 in - ENE 8.1 mph - N/A   Clear
6:00 PM 65 °F - 44 °F 36% 30.21 in 6 mi NE 6.9 mph - -  
6:00 PM 66.2 °F - 42.8 °F 43% 30.24 in - NE 8.1 mph - N/A   Clear
6:30 PM 62.6 °F - 44.6 °F 52% 30.24 in - ENE 6.9 mph - N/A   Clear
7:00 PM 60.8 °F - 44.6 °F 55% 30.24 in - ENE 5.8 mph - N/A   Clear
7:30 PM 59.0 °F - 42.8 °F 55% 30.27 in - ENE 4.6 mph - N/A   Clear
8:00 PM 57.2 °F - 44.6 °F 63% 30.27 in - ENE 4.6 mph - N/A   Clear
8:30 PM 57.2 °F - 44.6 °F 63% 30.27 in - ENE 4.6 mph - N/A   Clear
9:00 PM 57 °F - 45 °F 54% 30.28 in 6 mi East 3.5 mph - -  
9:00 PM 57.2 °F - 44.6 °F 63% 30.27 in - ENE 3.5 mph - N/A   Clear
9:30 PM 55.4 °F - 46.4 °F 72% 30.27 in - East 5.8 mph - N/A   Clear
10:00 PM 53.6 °F - 44.6 °F 72% 30.30 in - East 3.5 mph - N/A   Clear
10:30 PM 53.6 °F - 44.6 °F 72% 30.30 in - East 3.5 mph - N/A   Clear
11:00 PM 53.6 °F - 44.6 °F 72% 30.30 in - SE 4.6 mph - N/A   Clear
11:30 PM 53.6 °F - 46.4 °F 77% 30.30 in - NE 3.5 mph - N/A   Clear